Location: Béaulencourt
(50.0796°N, 2.8795°E)
Time: 23:45:14
(UTC+00:00)

SJ-6F - Pass Details

Date: 20 January 2026
Orbit: 541 x 571 km, 97.9° (Epoch: 7 February)

Event Time Altitude Azimuth Distance (km) Brightness Sun altitude
Rises 06:53:25 0° 13° (NNE) 2,740 7.8 -7.1°
Reaches altitude 10° 06:55:34 10° 13° (NNE) 1,836 6.9 -6.7°
Maximum altitude 06:59:32 88° 285° (WNW) 554 4.3 -6.2°
Drops below altitude 10° 07:03:27 10° 196° (SSW) 1,807 7.1 -5.6°
Sets 07:05:33 0° 196° (SSW) 2,692 8.0 -5.3°
